Location: Eindhoven
(51.4416°N, 5.4697°E)
Time: 16:16:28
(UTC+02:00)

Envisat - Visible Passes

Search period start: 14 October 2019 00:00
Search period end: 24 October 2019 00:00
Orbit: 764 x 766 km, 98.1° (Epoch: 14 October)

Date Brightness Start Highest point End Pass type
(mag) Time Alt. Az. Time Alt. Az. Time Alt. Az.
14 Oct 6.7 06:59:40 10° ENE 07:00:38 10° E 07:01:37 10° E visible
14 Oct 3.7 19:55:32 10° S 20:00:32 58° W 20:05:35 10° NNW visible
15 Oct 3.0 19:18:41 10° SSE 19:23:44 74° ENE 19:28:50 10° NNW visible
15 Oct 5.8 20:59:48 10° SW 21:03:20 19° W 21:06:54 10° NW visible
16 Oct 6.1 07:23:10 10° NE 07:26:33 18° E 07:29:55 10° SE visible
16 Oct 4.7 20:21:31 10° SSW 20:26:11 36° W 20:30:53 10° NNW visible
17 Oct 3.3 19:44:11 10° S 19:49:15 71° WSW 19:54:21 10° NNW visible
17 Oct 6.2 21:27:36 10° WSW 21:29:13 11° W 21:30:51 10° WNW visible
18 Oct 3.1 19:07:31 10° SSE 19:12:30 61° ENE 19:17:31 10° N visible
18 Oct 5.5 20:47:57 10° SW 20:51:56 23° W 20:55:57 10° NW visible
19 Oct 6.3 07:12:24 10° NE 07:15:08 14° E 07:17:50 10° ESE visible
19 Oct 4.3 20:10:01 10° S 20:14:51 44° W 20:19:44 10° NNW visible
20 Oct 3.1 19:32:53 10° SSE 19:37:58 86° WSW 19:43:06 10° NNW visible
20 Oct 6.0 21:15:07 10° WSW 21:17:47 14° W 21:20:28 10° NW visible
21 Oct 5.9 07:36:57 10° NE 07:40:58 23° E 07:44:58 10° SE visible
21 Oct 5.1 20:36:14 10° SSW 20:40:33 28° W 20:44:54 10° NW visible
22 Oct 6.5 07:02:00 10° ENE 07:03:41 11° E 07:05:22 10° ESE visible
22 Oct 3.8 19:58:34 10° S 20:03:32 54° W 20:08:32 10° NNW visible
23 Oct 3.0 19:21:38 10° SSE 19:26:42 79° ENE 19:31:49 10° NNW visible
23 Oct 5.8 21:03:01 10° SW 21:06:21 17° W 21:09:42 10° NW visible
